Chicopee, MA

5:39 PM EDT on June 23, 2017 (GMT -0400)
Westover Air Reserve Base / Metropolitan Airport

Weather History for KCEF - February, 2014

Change the Weather History Date:

Sunday, February 2, 2014

  Actual Average Record
Temperature  
Mean Temperature 38 °F -  
Max Temperature 45 °F 33 °F 48 °F (2016)
Min Temperature 30 °F 17 °F -2 °F (2005)
Degree Days  
Heating Degree Days 28    
Moisture  
Dew Point 36 °F    
Average Humidity 95    
Maximum Humidity 100    
Minimum Humidity 75    
Precipitation  
Precipitation 0.03 in - - ()
Sea Level Pressure  
Sea Level Pressure 29.92 in    
Wind  
Wind Speed 5 mph (SW)    
Max Wind Speed 10 mph    
Max Gust Speed -    
Visibility 6 miles    
Events Fog , Rain    
Averages and records for this station are not official NWS values.
T = Trace of Precipitation, MM = Missing Value Source: NWS Daily Summary

Daily Weather History Graph

Daily Weather History Graph

Search for Another Location

Airport or City:

Trip Planner

Search our weather history database for the weather conditions in past years. The results will help you decide how hot, cold, wet, or windy it might be!

Date:

Astronomy

Feb. 02, 2014 Rise Set
Actual Time 7:02 AM EST 5:05 PM EST
Civil Twilight 6:32 AM EST 5:35 PM EST
Nautical Twilight 5:59 AM EST 6:09 PM EST
Astronomical Twilight 5:26 AM EST 6:41 PM EST
Moon 8:22 AM EST (2/2) 8:51 PM EST (2/2)
Length of Visible Light 11h 02m
Length of Day
10h 03m
Waxing Crescent, 11% of the Moon is Illuminated
Feb 2
Waxing Crescent
Feb 6
First Quarter
Feb 14
Full
Feb 22
Last Quarter
Mar 1
New

Hourly Weather History & Observations

Time (EST) Temp. Windchill Dew Point Humidity Pressure Visibility Wind Dir Wind Speed Gust Speed Precip Events Conditions
12:58 AM 35.8 °F 28.3 °F 33.4 °F 91% 30.01 in 10.0 mi South 10.4 mph - N/A   Overcast
1:32 AM 35.6 °F 28.6 °F 33.8 °F 93% 29.97 in 10.0 mi South 9.2 mph - N/A   Scattered Clouds
1:58 AM 34.5 °F 27.9 °F 34.2 °F 99% 29.98 in 10.0 mi South 8.1 mph - N/A   Partly Cloudy
2:15 AM 35.6 °F 30.7 °F 35.6 °F 100% 29.95 in 10.0 mi South 5.8 mph - N/A   Mostly Cloudy
2:42 AM 37.4 °F 31.4 °F 35.6 °F 93% 29.93 in 10.0 mi South 8.1 mph - N/A   Overcast
2:53 AM 37.4 °F 32.8 °F 35.6 °F 93% 29.92 in 10.0 mi South 5.8 mph - N/A   Overcast
2:58 AM 37.0 °F 32.4 °F 36.5 °F 98% 29.94 in 10.0 mi South 5.8 mph - N/A   Overcast
3:24 AM 37.4 °F 32.1 °F 35.6 °F 93% 29.90 in 10.0 mi South 6.9 mph - N/A   Overcast
3:33 AM 35.6 °F 29.9 °F 35.6 °F 100% 29.90 in 10.0 mi South 6.9 mph - N/A   Scattered Clouds
3:58 AM 35.4 °F 31.5 °F 34.9 °F 98% 29.93 in 10.0 mi South 4.6 mph - N/A   Clear
4:58 AM 34.3 °F - 34.2 °F 99% 29.92 in 9.0 mi NNW 2.3 mph - N/A   Clear
4:59 AM 33.8 °F - 33.8 °F 100% 29.89 in 9.0 mi NNW 1.2 mph - N/A   Partly Cloudy
5:13 AM 32.0 °F - 32.0 °F 100% 29.90 in 7.0 mi North 1.2 mph - N/A   Mostly Cloudy
5:25 AM 32.0 °F - 32.0 °F 100% 29.89 in 5.0 mi East 2.3 mph - N/A   Scattered Clouds
5:34 AM 32.0 °F 28.7 °F 32.0 °F 100% 29.88 in 4.0 mi ENE 3.5 mph - N/A   Mostly Cloudy
5:37 AM 32.0 °F - 32.0 °F 100% 29.88 in 4.0 mi ENE 2.3 mph - N/A   Mostly Cloudy
5:58 AM 30.7 °F - 30.6 °F 99% 29.91 in 3.0 mi Calm Calm - N/A   Overcast
6:15 AM 30.2 °F - 30.2 °F 100% 29.88 in 5.0 mi South 2.3 mph - N/A   Overcast
6:26 AM 32.0 °F 28.7 °F 32.0 °F 100% 29.88 in 2.5 mi South 3.5 mph - N/A   Overcast
6:27 AM 32.0 °F 28.7 °F 32.0 °F 100% 29.88 in 2.5 mi South 3.5 mph - N/A   Overcast
6:29 AM 32.0 °F - 30.2 °F 93% 29.87 in 3.0 mi South 2.3 mph - N/A   Overcast
6:39 AM 32.0 °F - 30.2 °F 93% 29.87 in 5.0 mi Calm Calm - N/A   Overcast
6:58 AM 30.9 °F - 30.6 °F 99% 29.89 in 6.0 mi South 2.3 mph - N/A   Overcast
7:15 AM 32.0 °F - 32.0 °F 100% 29.86 in 4.0 mi SSW 1.2 mph - N/A   Overcast
7:23 AM 33.8 °F 29.6 °F 33.8 °F 100% 29.87 in 2.5 mi SSW 4.6 mph - N/A   Overcast
7:27 AM 35.6 °F 32.8 °F 33.8 °F 93% 29.87 in 2.0 mi SW 3.5 mph - N/A   Overcast
7:37 AM 35.6 °F 32.8 °F 35.6 °F 100% 29.88 in 1.8 mi SW 3.5 mph - N/A   Overcast
7:40 AM 35.6 °F 32.8 °F 35.6 °F 100% 29.88 in 1.5 mi SW 3.5 mph - N/A   Overcast
7:42 AM 35.6 °F 32.8 °F 35.6 °F 100% 29.88 in 1.2 mi SW 3.5 mph - N/A   Overcast
7:46 AM 35.6 °F 32.8 °F 35.6 °F 100% 29.88 in 1.0 mi SSW 3.5 mph - N/A   Overcast
7:49 AM 35.6 °F 32.8 °F 35.6 °F 100% 29.88 in 1.0 mi SSW 3.5 mph - N/A   Overcast
7:51 AM 37.4 °F 34.9 °F 35.6 °F 93% 29.88 in 1.0 mi SSW 3.5 mph - N/A   Overcast
7:54 AM 37.4 °F 34.9 °F 35.6 °F 93% 29.88 in 1.0 mi SSW 3.5 mph - N/A   Overcast
7:56 AM 37.4 °F 34.9 °F 35.6 °F 93% 29.88 in 1.0 mi SSW 3.5 mph - N/A   Overcast
7:58 AM 37.4 °F 34.9 °F 37.4 °F 100% 29.91 in 1.0 mi South 3.5 mph - N/A   Overcast
8:03 AM 37.4 °F 33.8 °F 37.4 °F 100% 29.88 in 1.2 mi SSW 4.6 mph - N/A   Overcast
8:04 AM 37.4 °F 33.8 °F 37.4 °F 100% 29.88 in 1.2 mi SW 4.6 mph - N/A   Overcast
8:19 AM 37.4 °F 33.8 °F 37.4 °F 100% 29.88 in 0.5 mi South 4.6 mph - N/A Fog Fog
8:54 AM 37.4 °F 32.8 °F 37.4 °F 100% 29.89 in 0.8 mi SSW 5.8 mph - N/A   Overcast
8:58 AM 37.8 °F 33.3 °F 37.6 °F 99% 29.93 in 0.8 mi SSW 5.8 mph - N/A   Overcast
9:26 AM 37.4 °F 32.8 °F 37.4 °F 100% 29.89 in 1.2 mi SW 5.8 mph - N/A   Overcast
9:58 AM 39.2 °F 35.0 °F 39.2 °F 100% 29.93 in 5.0 mi South 5.8 mph - N/A   Overcast
10:17 AM 41.0 °F 37.1 °F 39.2 °F 93% 29.90 in 10.0 mi South 5.8 mph - N/A   Overcast
10:31 AM 41.0 °F 38.0 °F 39.2 °F 93% 29.90 in 10.0 mi South 4.6 mph - N/A   Scattered Clouds
10:58 AM 42.6 °F - 40.8 °F 93% 29.93 in 10.0 mi Calm Calm - N/A   Partly Cloudy
11:58 AM 45.9 °F 43.6 °F 38.5 °F 75% 29.91 in 10.0 mi West 4.6 mph - N/A   Scattered Clouds
12:58 PM 45.0 °F - 39.2 °F 80% 29.93 in 10.0 mi NNW 1.2 mph - N/A   Overcast
1:15 PM 44.6 °F - 39.2 °F 81% 29.89 in 10.0 mi Calm Calm - N/A   Light Drizzle
1:24 PM 44.6 °F - 39.2 °F 81% 29.90 in 10.0 mi Calm Calm - N/A Rain Light Rain
1:34 PM 44.6 °F - 41.0 °F 87% 29.90 in 6.0 mi Calm Calm - N/A Rain Light Rain
1:51 PM 44.6 °F - 42.8 °F 93% 29.90 in 6.0 mi WNW 1.2 mph - N/A Rain Light Rain
1:54 PM 44.6 °F - 42.8 °F 93% 29.90 in 6.0 mi SW 2.3 mph - N/A Rain Light Rain
1:58 PM 44.1 °F - 43.3 °F 97% 29.93 in 7.0 mi SW 2.3 mph - 0.01 in Rain Light Rain
2:03 PM 44.6 °F - 42.8 °F 93% 29.90 in 7.0 mi SW 2.3 mph - N/A Rain Light Rain
2:44 PM 44.6 °F - 42.8 °F 93% 29.89 in 8.0 mi SSW 1.2 mph - N/A   Mostly Cloudy
2:46 PM 44.6 °F - 42.8 °F 93% 29.89 in 8.0 mi South 2.3 mph - N/A   Light Drizzle
2:58 PM 44.1 °F 41.5 °F 43.7 °F 99% 29.93 in 7.0 mi West 4.6 mph - 0.02 in Rain Light Rain
2:59 PM 44.6 °F 42.2 °F 42.8 °F 93% 29.90 in 7.0 mi West 4.6 mph - N/A   Mostly Cloudy
3:58 PM 42.6 °F 40.9 °F 42.1 °F 98% 29.96 in 10.0 mi NW 3.5 mph - 0.00 in   Overcast
4:58 PM 41.4 °F 36.8 °F 40.8 °F 98% 29.97 in 10.0 mi WNW 6.9 mph - N/A   Overcast
5:58 PM 40.5 °F 38.4 °F 39.7 °F 97% 29.98 in 10.0 mi North 3.5 mph - N/A   Mostly Cloudy
6:58 PM 39.6 °F 33.0 °F 36.5 °F 89% 30.02 in 10.0 mi WNW 10.4 mph - N/A   Overcast
7:58 PM 38.7 °F 32.9 °F 34.0 °F 83% 30.05 in 10.0 mi West 8.1 mph - N/A   Overcast
8:58 PM 37.6 °F 34.0 °F 33.1 °F 84% 30.06 in 10.0 mi West 4.6 mph - N/A   Overcast
9:58 PM 36.1 °F 30.6 °F 33.1 °F 89% 30.08 in 10.0 mi WNW 6.9 mph - N/A   Overcast
10:58 PM 35.2 °F 28.8 °F 32.9 °F 91% 30.10 in 10.0 mi WNW 8.1 mph - N/A   Scattered Clouds
11:58 PM 35.8 °F 33.0 °F 31.6 °F 85% 30.11 in 10.0 mi West 3.5 mph - N/A   Mostly Cloudy